TimeCDT,TemperatureF,Dew PointF,Humidity,Sea Level PressureIn,VisibilityMPH,Wind Direction,Wind SpeedMPH,Gust SpeedMPH,PrecipitationIn,Events,Conditions,WindDirDegrees,DateUTC
12:52 AM,75.9,75.0,97,29.94,10.0,SE,3.5,-,N/A,,Clear,140,2013-08-30 05:52:00
1:52 AM,75.9,75.0,97,29.93,10.0,SE,3.5,-,N/A,,Mostly Cloudy,140,2013-08-30 06:52:00
2:52 AM,75.9,75.0,97,29.93,10.0,Calm,Calm,-,N/A,,Clear,0,2013-08-30 07:52:00
3:52 AM,75.0,75.0,100,29.92,9.0,SE,3.5,-,N/A,,Partly Cloudy,130,2013-08-30 08:52:00
4:52 AM,75.0,73.9,96,29.91,8.0,ESE,3.5,-,N/A,,Clear,120,2013-08-30 09:52:00
5:35 AM,73.4,73.4,100,29.92,6.0,Calm,Calm,-,N/A,,Scattered Clouds,0,2013-08-30 10:35:00
5:48 AM,73.4,73.4,100,29.92,5.0,Calm,Calm,-,N/A,,Mostly Cloudy,0,2013-08-30 10:48:00
5:52 AM,73.9,73.9,100,29.90,5.0,Calm,Calm,-,N/A,,Scattered Clouds,0,2013-08-30 10:52:00
5:59 AM,73.4,73.4,100,29.92,5.0,Calm,Calm,-,N/A,,Mostly Cloudy,0,2013-08-30 10:59:00
6:50 AM,73.4,73.4,100,29.92,1.8,Calm,Calm,-,N/A,,Overcast,0,2013-08-30 11:50:00
6:52 AM,73.0,73.0,100,29.90,1.2,Calm,Calm,-,N/A,,Overcast,0,2013-08-30 11:52:00
6:54 AM,73.4,73.4,100,29.92,0.8,Calm,Calm,-,N/A,,Overcast,0,2013-08-30 11:54:00
7:50 AM,75.2,75.2,100,29.91,1.2,Calm,Calm,-,N/A,,Mostly Cloudy,0,2013-08-30 12:50:00
7:52 AM,75.0,75.0,100,29.90,1.8,Calm,Calm,-,N/A,,Mostly Cloudy,0,2013-08-30 12:52:00
7:55 AM,75.2,75.2,100,29.91,3.0,Calm,Calm,-,N/A,,Mostly Cloudy,0,2013-08-30 12:55:00
8:07 AM,75.2,75.2,100,29.91,10.0,South,3.5,-,N/A,,Scattered Clouds,180,2013-08-30 13:07:00
8:52 AM,80.1,73.9,81,29.88,10.0,SSW,3.5,-,N/A,,Clear,210,2013-08-30 13:52:00
9:52 AM,84.9,73.9,69,29.88,10.0,WSW,6.9,-,N/A,,Clear,240,2013-08-30 14:52:00
10:52 AM,89.1,73.0,59,29.87,10.0,West,5.8,-,N/A,,Clear,280,2013-08-30 15:52:00
11:52 AM,91.9,73.9,55,29.86,10.0,SW,3.5,-,N/A,,Clear,230,2013-08-30 16:52:00
12:52 PM,95.0,72.0,47,29.84,10.0,Variable,6.9,-,N/A,,Clear,0,2013-08-30 17:52:00
1:52 PM,96.1,70.0,43,29.83,10.0,SW,9.2,-,N/A,,Clear,230,2013-08-30 18:52:00
2:52 PM,99.0,68.0,36,29.81,10.0,WSW,11.5,-,N/A,,Clear,250,2013-08-30 19:52:00
3:52 PM,100.0,64.0,31,29.80,10.0,WSW,6.9,-,N/A,,Clear,250,2013-08-30 20:52:00
4:52 PM,99.0,64.0,32,29.78,10.0,WSW,9.2,-,N/A,,Clear,250,2013-08-30 21:52:00
5:52 PM,98.1,66.0,35,29.76,10.0,WSW,6.9,-,N/A,,Clear,240,2013-08-30 22:52:00
6:52 PM,95.0,69.1,43,29.77,10.0,Calm,Calm,-,N/A,,Clear,0,2013-08-30 23:52:00
7:52 PM,90.0,72.0,55,29.78,10.0,Calm,Calm,-,N/A,,Clear,0,2013-08-31 00:52:00
8:52 PM,84.9,71.1,63,29.77,10.0,Calm,Calm,-,N/A,,Clear,0,2013-08-31 01:52:00
9:52 PM,81.0,73.0,77,29.78,10.0,Calm,Calm,-,N/A,,Clear,0,2013-08-31 02:52:00
10:52 PM,84.0,72.0,67,29.78,10.0,ENE,10.4,17.3,N/A,,Clear,60,2013-08-31 03:52:00
11:52 PM,81.0,72.0,74,29.77,10.0,East,8.1,-,N/A,,Clear,100,2013-08-31 04:52:00